Showing default

TIANHUI 5D, 60212

Orbit data source: Space-Track

TIANHUI 5D, 60212 is a payload satellite owned by G. Cehui dili (CN) in SSO that was launched on Thu, 04 Jul 2024 UTC via a CHANG ZHENG 6A launch vehicle from the Taiyaun Space Center, China (TSC). Payload-class satellites include a variety of spacecraft equipped with specific instruments for various scientific and technological missions. These include communications satellites like Starlink; space stations such as the ISS; scientific satellites like the Hubble; Earth observation satellites from companies like Planet Labs, Umbra, and HawkEye 360; GPS; miniature CubeSats for education and research; and military/defense satellites.

Loading next visibility...
Identifier
60212, 2024-126B
Orbit
SSO
Last TLE update
1 day ago
Origin
Manufacturer
DFH
Mission
Operational spacecraft
Bus & Motor
CAST-2000?, Unknown motor
Mass
~1,000 kg wet, ~1,000 kg dry
Launch date (UTC)
2024-07-04 (1 year ago)
Launch vehicle
CHANG ZHENG 6A
Launch site
Taiyaun Space Center, China (TSC)
Object type
Payload
Rocket body
Debris
Shape & HBR
Unknown
Radar Cross Section
Large (>1 m²)

Expand to show TLE details & history

TLE from 1 day ago
0 TIANHUI 5D
1 60212U 24126B   25182.71833075  .00000366  00000-0  46288-4 0  9995
2 60212  97.8208 190.3133 0002110  94.9416 265.2042 14.87585294 53792
Epoch: 2025-07-01T17:14Z
TLE epoch observation values (Epoch: 2025-07-01T17:14:23.776Z)
Latitude
0.00004°
Longitude
11.70447°
Altitude
608.641 km
Speed
7.555 km/s
True Right ascension
12h 41m 15s
True Declination
0° 00' 00"
Sunlit
Object was in daylight at epoch
Visualization orbit readout
Latitude
-72.44206°
Longitude
38.39602°
Altitude
633.638 km
Speed
7.54 km/s
Apparent Right ascension
18h 35m 19s
Apparent Declination
-62° 44' 44"
Sunlit
Object is in full shadow
Visualization observer readout
Local Sidereal Time
08:05:04
Azimuth
156.922° SSE
Elevation
-63.518°
Doppler factor
1
Orbital elements
Apogee altitude
603.983 km
Perigee altitude
601.037 km
Semi-major axis
6,980.647 km
Eccentricity
0.00021
Inclination
97.8208°
RAAN
190.3133°
Arg. of periapsis
94.9416°
True anomaly
Unknown
Mean anomaly
265.2042°
Eccentric anomaly
Unknown
Mean motion
3.72134 °/min
Orbital period
96.74 mins
BSTAR
0.000046288
Loading maneuver chart data...
Loading SW <> Apogee altitude chart data...
Loading historical data...
Loading historical data...
Loading historical data...
Loading historical data...
Loading historical data...
Loading historical data...
Loading historical data...
Other satellites on launch #126 in the year 2024 (2024-07-04 UTC)

TIANHUI 5D Visibility forecast

Observer location: undefined°, undefined°

Span
Click to sort rows by Start time (UTC) header in descending order
Start Az.
Max El. time (UTC)
Max El. Az.
Max El.
End time (UTC)
End Az.
7 mins2025-07-03 00:02:03.423Z141.642° SSE2025-07-03 00:06:03.423Z69.125° E33.014°2025-07-03 00:09:03.423Z7.744° NNE
7 mins2025-07-03 13:24:03.423Z13.196° NNE2025-07-03 13:27:03.423Z33.923° NE44.884°2025-07-03 13:31:03.423Z192.903° SSW
|